Weather in Chudniv

Ukraine / Zhytomyr Region     50°03′09″N   28°07′06″E
temp.,
°C
wind,
m/s
gust,
m/s
humid.,
%
clouds,
%
prec.,
mm/h
press.,
hPa
HPBL,
m
16 may, sun
sun1600:00+10sw22905 0.0 101111
03:00+9sw22915 0.0 101212
06:00+9sse339342 0.0 101242
09:00+15se357381 0.0 1012377
12:00+20sse5761100 0.0 10111227
15:00+20sse5761100 1.4 10101417
18:00+17se477598 1.6 1009179
21:00+14se468297 1.9 100979
17 may, mon
mon1700:00+13se3688100 0.3 100878
03:00+11se349360 0.6 100869
06:00+11wsw1190100 0.3 100710
09:00+16nne2278100 0.3 1007277
12:00+19nnw2366100 0.1 1005718
15:00+18e5472100 2.0 1004690
18:00+15ese3496100 2.6 1003206
21:00+13nnw1195100 8.1 100337
18 may, tue
tue1800:00+12wnw1190100 1.1 100212
03:00+11s2292100 1.1 100129
06:00+11ssw3597100 0.1 1000106
09:00+15sw4587100 0.2 1000542
12:00+14sw5689100 2.8 1001510
15:00+11w71392100 5.3 1002651
18:00+11w71292100 0.3 1003705
21:00+10w81494100 0.4 1003725
19 may, wed
wed1900:00+9w91693100 0.3 1004788
03:00+9w81696100 4.4 1004930
06:00+9wnw101795100 7.4 1004999
09:00+9wnw91594100 14.1 1007945
12:00+12wnw81382100 0.9 10091272
15:00+13nw71174100 1.1 10101328
18:00+13wnw698252 0.6 1011883
21:00+10w33913 0.8 101137
20 may, thu
thu2000:00+8w35920 0.0 101270
03:00+7w239387 0.0 101228
06:00+7nw229464 0.0 101234
09:00+12nnw348383 0.0 1012390
12:00+15n2269100 0.3 10121027
15:00+12nw1288100 2.8 101293
18:00+10n2694100 4.9 1013372
21:00+9n3995100 9.5 1013412